Location: Unspecified
(51.0950°N, 12.9690°E)
Time: 22:44:19
(UTC+00:00)

CZ-2C R/B - Pass Details

Date: 28 October 2021
Orbit: 784 x 871 km, 98.2° (Epoch: 01 December)

Event Time Altitude Azimuth Distance (km) Brightness Sun altitude
Rises 17:23:19 0° 15° (NNE) 3,463 5.7 -15.3°
Reaches altitude 10° 17:25:44 10° 17° (NNE) 2,515 5.0 -15.6°
Maximum altitude 17:31:20 73° 103° (ESE) 892 2.6 -16.5°
Drops below altitude 10° 17:36:47 10° 188° (S) 2,449 5.2 -17.4°
Sets 17:39:07 0° 191° (S) 3,366 6.0 -17.8°
